Location: Marse
(42.1502°N, 110.9866°W)
Time: 00:24:59
(UTC+00:00)

ITAMSAT 1 - Pass Details

Date: 05 July 2022
Orbit: 784 x 795 km, 98.9° (Epoch: 07 August)

Event Time Altitude Azimuth Distance (km) Brightness Sun altitude
Rises 04:01:12 0° 220° (SW) 3,264 10.8 -9.3°
Reaches altitude 10° 04:05:31 10° 255° (WSW) 2,345 10.6 -9.9°
Maximum altitude 04:06:57 11° 272° (W) 2,272 10.8 -10.1°
Drops below altitude 10° 04:08:24 10° 288° (WNW) 2,352 11.2 -10.3°
Sets 04:12:46 0° 323° (NW) 3,291 12.9 -10.9°
